sat.trackr.live / text

‹ back to catalog

ONEWEB-0292

NORAD 49186 · 2021-083A

PAYLOAD ACTIVE UNKNOWN

§ Identity

Operator
Country
UK
Launch date
2021-09-14
Launch site
TYMSC
Launch vehicle
Mass (kg)
RCS (m²)

Purposes: comms

External: N2YO · Heavens-Above · Gunter

§ Orbital elements

Epoch: 2026-05-25T00:10:52.936896Z

Period
109.63 min
Inclination
87.8929°
Eccentricity
0.0001994
Mean motion
13.13469342 rev/d
Perigee alt
1,208.3 km
Apogee alt
1,211.3 km
Semi-major
7,587.9 km
B*
3.1844e-4
RAAN
324.8584°
Arg perigee
92.0296°
Mean anomaly
268.1062°
Rev number
22,788

§ Raw data

ONEWEB-02921 49186U 21083A   26145.00755714  .00000129  00000+0  31844-3 0  99932 49186  87.8929 324.8584 0001994  92.0296 268.1062 13.13469342227886

JSON: /api/v1/satellites/49186 · /tle

For live sub-satellite position, see the globe view (requires WebGL).

§ Visibility from observer

Set your observer location to see the next 7 days of passes ≥ 10°. The values pass through the URL so the page stays shareable.

No JS? Fill the form by hand. The geolocation button needs JavaScript.